Wind_Speed
61 62 61 58 58 58 55 51 47 45 45 45 42 40 41 42 41 38 38 39 39 41 43 43 44 44 45 48 49 51 52 53 51 48 45 43 43 42 41 40 42 44 45 43 46 46 47 45 45
62 63 63 60 62 58 53 50 50 49 49 49 47 47 48 45 47 47 44 43 42 47 49 47 46 46 48 50 49 48 49 49 47 45 42 41 41 41 35 35 36 38 39 41 44 47 44 45 45
65 65 67 66 63 60 56 54 52 52 53 52 49 50 51 53 52 53 51 52 48 49 51 51 47 48 49 51 48 45 46 45 43 42 39 39 36 35 38 39 37 38 39 41 41 43 43 44 44
69 71 70 63 63 61 56 52 55 56 54 54 54 53 54 56 54 54 54 53 52 51 51 51 49 50 52 51 47 43 41 41 40 38 32 28 34 36 36 40 39 41 42 40 41 42 43 44 43
71 71 71 72 63 61 57 57 63 61 58 58 59 60 58 59 55 53 49 49 49 49 50 51 52 53 54 50 45 40 38 38 38 33 37 30 36 34 38 38 38 41 41 43 43 44 44 44 45
72 75 77 76 68 63 66 64 63 66 66 62 66 67 62 58 59 59 57 54 51 51 53 53 54 55 54 48 42 36 36 38 36 36 38 38 36 38 36 37 38 40 44 43 44 46 46 45 46
72 67 66 65 66 65 71 64 58 57 62 64 68 63 59 60 60 60 59 57 57 55 55 56 56 55 52 45 39 34 36 37 37 38 39 37 41 38 39 42 40 38 40 41 42 43 43 43 43
61 62 64 65 61 66 63 63 64 61 63 64 65 63 61 60 61 61 59 59 56 55 55 57 55 54 50 43 36 33 37 37 39 38 35 36 36 38 38 35 36 40 42 44 43 42 41 39 39
52 54 54 53 52 53 55 57 56 57 58 60 60 60 59 60 63 62 60 58 55 58 54 56 53 52 47 42 35 33 37 39 40 38 38 36 39 41 42 41 41 45 46 45 44 40 40 41 39
48 49 49 48 47 48 48 49 50 50 50 53 52 54 53 54 55 56 56 56 56 50 50 52 51 48 43 39 35 34 38 39 40 37 39 38 36 39 43 44 48 48 46 46 44 44 44 42 39
44 47 42 43 43 46 44 42 43 46 47 44 44 43 44 45 45 45 49 50 50 48 50 48 47 43 40 35 34 34 37 40 40 43 40 33 37 39 40 45 47 47 49 47 45 44 46 42 41
45 45 40 34 32 34 38 41 38 35 30 29 36 37 38 40 40 39 42 46 46 45 45 47 43 41 39 34 34 34 37 41 43 42 44 40 41 41 43 45 48 49 47 46 46 47 42 41 36
43 42 41 33 30 29 32 31 29 27 18 33 36 37 38 39 35 36 38 41 43 41 44 43 41 38 36 33 33 34 36 38 40 42 38 40 45 43 44 44 45 47 48 49 47 42 39 37 38
41 41 35 35 32 27 26 26 33 19 30 31 34 34 38 33 32 32 36 41 39 40 43 41 38 37 35 33 33 33 34 37 38 36 39 40 40 42 41 44 47 49 49 50 46 45 40 41 41
38 35 33 35 29 26 27 28 27 25 29 31 31 31 34 26 26 29 34 36 39 41 41 39 37 35 33 33 32 33 35 37 38 42 41 43 42 42 43 48 49 49 52 50 48 45 44 45 46
38 35 34 33 30 27 27 22 29 30 32 32 33 31 30 22 23 28 31 35 38 38 37 37 35 33 32 32 31 34 34 37 39 40 41 43 45 45 47 50 52 52 53 53 50 47 48 50 51
38 38 37 31 30 30 28 21 29 30 28 29 30 28 26 23 25 26 31 33 37 36 35 35 33 32 31 31 31 32 32 34 36 36 41 44 45 48 50 53 55 55 55 55 54 52 52 55 58
47 45 40 35 32 32 31 26 30 29 31 30 26 28 23 26 26 30 37 35 35 34 32 33 31 29 30 30 30 32 33 33 35 39 42 43 47 50 52 55 57 59 56 58 57 57 59 61 63
48 43 42 38 34 33 29 29 29 31 30 30 28 27 26 25 26 28 33 33 32 32 32 33 30 28 28 29 30 31 32 35 37 40 45 48 51 52 54 55 60 58 57 60 61 62 64 68 70
48 47 44 40 37 38 31 31 30 32 30 30 30 27 28 24 27 30 32 33 31 30 31 32 31 29 28 28 30 32 35 39 42 45 48 52 54 55 57 60 59 58 60 64 66 68 69 73 77
51 45 41 42 39 40 34 33 32 32 32 32 30 27 29 27 30 33 32 32 32 28 30 34 34 33 32 33 35 37 40 43 47 49 50 53 57 59 59 58 59 60 64 68 71 73 76 78 82
55 50 44 43 42 42 35 37 34 34 34 35 35 29 33 30 33 35 35 33 33 30 32 33 37 39 39 40 41 44 45 48 50 52 55 55 55 55 57 59 62 66 70 73 75 78 82 84 86
62 51 50 47 44 43 39 36 38 37 38 38 38 31 31 32 32 33 33 32 35 35 34 33 35 40 44 44 45 47 49 51 54 53 54 56 59 61 63 66 69 72 75 79 82 87 90 92 95
59 52 50 47 44 41 42 38 43 38 41 42 41 37 34 34 34 32 31 33 36 35 33 33 35 40 42 45 46 46 50 52 52 55 58 60 62 64 67 71 74 78 81 84 87 91 95 99 102
57 53 51 47 44 46 43 38 46 43 42 44 44 41 38 39 38 36 39 39 39 34 32 33 34 37 40 42 44 46 48 51 55 59 60 63 67 70 74 77 81 84 87 91 94 98 102 105 107
60 57 51 48 46 47 45 44 49 47 44 45 45 45 39 43 44 42 43 41 39 37 33 34 38 38 40 42 44 47 52 54 57 61 65 68 71 75 78 83 87 92 96 99 103 106 110 114 117
63 58 58 50 48 48 48 49 53 51 47 48 49 49 45 45 46 47 45 38 36 37 38 39 41 42 44 46 48 51 55 58 61 65 68 73 76 80 85 89 93 98 103 108 110 113 116 121 125
64 63 55 52 54 54 52 53 54 52 51 51 51 53 50 49 50 49 49 43 40 40 41 43 45 47 50 52 55 58 60 63 66 71 75 80 85 88 92 97 102 107 110 113 117 121 124 127 129
68 63 61 60 58 56 57 57 57 55 54 54 54 53 54 52 54 54 50 49 46 44 46 48 50 53 55 58 60 62 65 69 74 78 82 86 90 95 100 104 107 110 112 115 115 120 124 128 135
70 65 62 61 60 61 60 61 58 58 56 55 54 54 56 59 59 59 55 53 50 49 52 55 55 56 59 62 65 69 73 76 80 84 88 94 98 101 101 105 106 108 112 118 122 125 130 134 137
Wind_Direction
241 245 249 256 255 258 260 260 260 264 268 270 270 269 268 267 272 274 276 280 284 288 286 288 287 290 295 293 289 281 273 269 267 265 263 262 264 265 268 268 270 272 271 266 270 271 278 280 283
246 248 250 253 255 258 257 260 262 264 272 276 273 269 270 270 272 273 278 281 286 288 287 284 287 291 296 297 293 283 273 267 263 260 260 258 261 266 268 270 272 277 278 276 268 273 277 279 279
245 249 250 251 252 253 255 254 260 263 269 273 272 273 275 270 271 276 279 284 284 288 288 285 288 294 298 298 295 284 271 262 258 254 254 255 263 268 270 266 272 282 279 276 275 274 274 276 278
242 245 246 253 253 253 255 257 262 265 268 272 271 276 278 280 274 277 278 283 284 286 287 287 291 296 300 299 294 284 266 256 250 248 253 251 263 261 264 268 274 279 278 282 279 281 282 281 281
242 244 248 251 252 254 254 262 265 266 268 269 272 275 275 279 277 279 279 286 285 286 289 289 294 297 300 300 292 281 261 248 244 239 240 248 256 265 264 270 274 281 289 285 283 284 284 285 285
240 242 245 250 253 252 252 257 260 261 265 266 271 274 275 277 278 278 278 282 285 283 289 291 294 297 299 299 290 273 254 240 234 230 239 239 259 266 268 273 280 285 286 288 287 287 290 287 287
236 240 242 248 246 250 251 256 258 261 263 265 269 274 277 276 275 276 278 280 283 281 284 289 292 296 298 295 285 263 245 234 230 232 242 244 257 266 268 278 280 284 287 293 293 290 291 291 291
237 241 246 247 248 249 255 258 262 265 264 265 268 275 275 273 272 274 275 277 279 277 282 286 289 295 296 291 278 255 238 231 229 232 242 250 254 262 268 279 285 286 290 294 296 297 295 293 290
232 237 243 247 250 250 253 255 258 260 262 265 267 267 266 268 270 270 272 273 273 277 280 283 288 295 293 287 271 249 234 228 230 233 239 249 256 264 274 283 285 286 290 294 296 294 292 293 291
226 229 234 240 242 244 248 252 255 260 266 267 266 266 266 267 268 269 268 269 271 275 278 283 291 295 288 280 263 245 233 229 231 236 246 256 265 273 274 278 280 284 289 292 291 291 295 294 286
216 219 228 232 233 238 244 249 254 262 262 266 269 269 270 269 268 266 265 265 268 272 278 284 293 290 282 273 256 241 235 231 233 236 244 257 266 275 278 279 281 284 289 288 291 293 294 287 285
213 217 216 214 221 231 236 243 254 257 263 266 264 267 267 264 260 264 267 263 264 272 280 287 290 286 278 266 254 241 236 236 238 242 246 258 266 274 277 280 285 285 285 290 293 292 287 283 278
213 212 210 215 227 226 231 241 245 250 258 259 261 265 268 260 259 263 265 261 266 276 280 289 290 284 274 262 250 242 240 242 243 247 254 263 264 271 279 282 283 285 288 292 292 288 285 280 279
210 206 214 223 221 226 227 230 238 234 255 259 270 270 268 257 260 262 263 263 272 277 283 288 287 280 269 260 249 243 242 244 248 254 255 261 266 271 278 284 284 287 289 292 289 286 281 282 282
211 212 225 224 227 233 231 231 247 246 257 267 275 276 272 261 268 272 273 270 276 280 285 286 287 278 265 257 250 246 245 248 252 255 256 262 266 270 279 285 285 289 290 290 289 283 283 285 287
216 219 228 218 234 239 243 229 253 254 261 271 278 276 273 266 266 269 275 278 277 282 286 288 287 277 262 254 249 247 248 252 256 258 260 264 268 269 278 284 286 289 288 288 290 285 284 286 289
218 226 231 230 234 242 249 241 261 268 269 276 283 273 268 262 260 267 270 275 277 283 287 290 285 279 267 254 250 250 252 256 257 262 264 265 265 272 278 283 285 289 287 286 287 285 285 287 289
219 226 231 234 237 241 250 259 269 274 272 274 296 281 256 258 265 268 273 274 280 283 287 288 284 274 272 265 263 258 256 256 260 263 265 267 274 281 282 285 287 290 285 285 283 283 283 284 286
218 228 234 235 237 239 244 257 271 277 271 274 292 269 251 259 268 271 273 276 282 282 284 286 284 278 272 268 265 266 262 262 266 269 274 278 280 282 284 287 288 287 283 284 283 282 283 284 285
221 228 231 233 233 244 245 254 266 276 278 274 291 265 255 257 264 271 277 280 284 285 284 282 279 274 271 267 264 265 268 272 275 279 281 283 285 287 288 289 287 285 282 283 284 282 283 285 286
220 223 228 231 233 246 246 255 260 272 279 276 284 262 255 258 266 275 281 284 285 288 286 277 275 272 269 270 271 273 277 279 281 282 285 285 286 286 286 285 285 284 285 286 286 285 283 284 288
218 222 232 234 235 241 249 255 261 265 276 279 281 282 258 259 267 275 278 281 282 282 283 283 278 277 277 278 278 278 280 282 284 288 289 287 286 287 287 287 287 287 287 288 289 289 289 289 289
219 224 231 236 236 242 248 256 258 264 268 277 278 284 258 259 265 271 276 280 283 283 284 281 278 278 277 278 278 281 284 288 291 290 291 292 291 290 290 289 289 289 290 290 291 292 293 294 293
220 225 232 236 239 244 248 255 262 266 268 271 275 278 274 260 263 268 274 278 281 288 296 289 278 276 277 277 279 282 286 286 286 288 290 291 291 291 291 292 292 292 292 293 292 292 291 291 290
223 228 232 235 238 244 249 255 262 265 266 267 271 275 279 263 266 267 272 277 285 287 292 291 283 278 278 279 280 281 282 284 288 289 290 289 290 292 292 293 293 292 291 291 290 289 289 288 288
226 228 233 237 239 245 248 251 259 263 266 267 271 272 278 267 270 271 271 277 283 283 287 288 287 286 285 285 283 284 285 287 288 289 290 291 291 292 292 292 292 292 291 291 291 290 290 290 289
227 230 234 238 242 246 249 252 257 261 263 265 269 272 274 271 268 273 273 278 280 282 284 286 288 289 286 284 286 287 287 290 291 291 292 292 293 293 292 292 291 292 293 292 292 292 292 292 292
229 231 234 240 243 244 249 252 257 260 263 263 267 270 272 275 270 273 276 277 280 281 283 285 286 284 285 287 288 289 290 290 292 293 294 293 293 293 293 294 294 294 295 295 295 294 293 293 293
229 233 237 239 241 245 250 253 256 257 260 262 266 270 271 271 271 275 275 278 280 282 285 285 285 285 286 287 289 290 290 291 291 292 294 296 296 295 295 297 297 296 294 294 295 294 293 293 294
231 235 238 239 243 247 250 252 254 257 261 260 265 269 274 274 275 277 278 275 281 282 283 284 285 286 288 290 290 290 290 292 293 295 296 296 295 297 298 297 296 296 296 295 296 295 296 296 296
Height
10850 10853 10858 10861 10863 10866 10871 10877 10879 10880 10882 10884 10885 10886 10885 10885 10885 10885 10884 10884 10884 10883 10882 10880 10878 10877 10875 10872 10870 10867 10865 10864 10864 10865 10867 10869 10869 10870 10871 10871 10870 10870 10869 10868 10867 10867 10867 10867 10867
10841 10844 10850 10853 10855 10860 10866 10871 10872 10875 10877 10878 10880 10880 10878 10878 10879 10879 10879 10878 10877 10875 10874 10872 10870 10868 10866 10863 10860 10857 10855 10855 10857 10858 10860 10862 10862 10864 10865 10865 10864 10863 10862 10861 10861 10861 10861 10860 10860
10833 10837 10842 10845 10847 10853 10860 10864 10868 10868 10869 10870 10873 10871 10872 10871 10871 10873 10873 10872 10870 10868 10866 10864 10861 10859 10856 10854 10850 10847 10846 10847 10849 10851 10854 10855 10857 10858 10858 10858 10858 10857 10855 10854 10854 10853 10853 10854 10852
10825 10829 10834 10835 10839 10848 10854 10861 10859 10860 10863 10863 10863 10864 10863 10862 10864 10865 10866 10865 10863 10860 10858 10856 10852 10850 10847 10844 10840 10837 10837 10840 10842 10845 10848 10851 10852 10852 10852 10852 10851 10850 10849 10849 10848 10847 10847 10846 10846
10815 10820 10824 10827 10834 10843 10849 10852 10849 10851 10855 10855 10853 10854 10855 10855 10858 10857 10857 10856 10855 10851 10849 10847 10844 10841 10838 10834 10830 10828 10830 10832 10836 10840 10844 10846 10846 10846 10847 10845 10844 10845 10844 10844 10842 10840 10840 10839 10837
10805 10809 10814 10819 10828 10837 10840 10842 10839 10842 10845 10846 10843 10844 10848 10850 10849 10849 10849 10849 10847 10843 10841 10839 10836 10833 10830 10825 10822 10821 10823 10825 10830 10834 10837 10839 10840 10841 10840 10839 10839 10839 10838 10836 10835 10833 10832 10831 10830
10794 10799 10804 10813 10822 10828 10829 10831 10829 10835 10836 10837 10833 10837 10841 10840 10840 10840 10840 10840 10838 10836 10834 10832 10829 10825 10822 10818 10816 10814 10816 10819 10824 10828 10831 10834 10835 10834 10833 10834 10833 10832 10831 10829 10827 10826 10824 10823 10821
10786 10790 10797 10806 10813 10816 10818 10820 10822 10827 10826 10827 10827 10830 10832 10829 10829 10830 10832 10830 10830 10828 10826 10825 10822 10818 10814 10811 10809 10809 10811 10814 10818 10823 10826 10829 10829 10829 10828 10828 10826 10825 10823 10822 10819 10817 10816 10814 10812
10778 10782 10790 10799 10803 10806 10808 10810 10813 10815 10818 10819 10819 10820 10820 10819 10819 10820 10822 10822 10821 10819 10818 10817 10815 10812 10808 10804 10803 10804 10806 10810 10814 10818 10822 10822 10823 10823 10822 10821 10820 10818 10816 10814 10811 10809 10807 10804 10803
10771 10775 10783 10790 10793 10796 10798 10800 10802 10807 10810 10810 10809 10807 10809 10809 10809 10811 10812 10812 10811 10812 10812 10811 10808 10805 10802 10798 10797 10799 10802 10805 10809 10813 10815 10817 10817 10816 10816 10815 10813 10811 10808 10805 10802 10801 10799 10796 10794
10762 10766 10779 10782 10785 10787 10791 10794 10794 10798 10800 10802 10799 10799 10800 10800 10800 10800 10800 10802 10805 10805 10806 10805 10802 10798 10795 10794 10794 10795 10798 10801 10804 10806 10810 10811 10810 10810 10809 10808 10805 10803 10800 10797 10795 10793 10790 10787 10785
10754 10761 10772 10776 10777 10781 10786 10787 10790 10791 10795 10793 10790 10791 10790 10789 10789 10791 10793 10795 10797 10800 10799 10797 10794 10791 10790 10788 10789 10790 10793 10796 10799 10802 10804 10804 10804 10803 10802 10800 10797 10794 10791 10789 10787 10784 10781 10778 10776
10747 10756 10764 10768 10770 10775 10780 10782 10783 10786 10790 10784 10782 10784 10783 10782 10783 10784 10787 10790 10792 10793 10791 10790 10787 10785 10785 10784 10784 10785 10788 10792 10795 10797 10798 10798 10797 10796 10795 10792 10788 10786 10783 10780 10777 10774 10772 10770 10768
10739 10751 10755 10759 10766 10770 10773 10776 10774 10784 10779 10778 10777 10777 10776 10776 10777 10780 10783 10785 10787 10787 10785 10783 10781 10780 10779 10779 10780 10782 10784 10786 10789 10790 10790 10790 10789 10788 10786 10783 10780 10777 10774 10770 10767 10765 10763 10761 10760
10735 10743 10748 10754 10760 10762 10766 10769 10772 10775 10772 10773 10771 10771 10770 10771 10773 10776 10778 10780 10780 10780 10778 10776 10774 10774 10773 10773 10775 10777 10778 10780 10782 10783 10782 10782 10781 10780 10777 10773 10771 10769 10765 10761 10759 10756 10755 10752 10751
10729 10737 10741 10749 10753 10758 10759 10767 10765 10765 10767 10768 10766 10766 10765 10766 10769 10771 10773 10774 10774 10773 10771 10769 10767 10768 10768 10768 10769 10770 10771 10773 10774 10775 10775 10775 10773 10772 10768 10764 10761 10759 10755 10752 10750 10748 10746 10743 10741
10725 10729 10734 10742 10748 10751 10754 10760 10760 10760 10761 10762 10761 10760 10761 10763 10766 10767 10767 10768 10767 10766 10765 10763 10762 10762 10762 10762 10763 10765 10765 10766 10768 10768 10767 10766 10765 10763 10760 10756 10752 10749 10746 10743 10741 10738 10736 10732 10728
10714 10719 10727 10736 10741 10746 10750 10753 10753 10754 10755 10756 10756 10756 10757 10759 10761 10762 10762 10762 10762 10760 10759 10758 10757 10756 10756 10757 10758 10759 10759 10760 10760 10759 10759 10758 10757 10755 10751 10747 10742 10740 10736 10732 10730 10727 10723 10720 10715
10708 10716 10722 10730 10736 10739 10744 10747 10748 10748 10750 10751 10752 10751 10753 10754 10756 10756 10756 10756 10756 10754 10752 10752 10752 10752 10752 10752 10752 10752 10752 10752 10752 10752 10752 10749 10747 10744 10741 10736 10732 10729 10725 10720 10717 10714 10709 10703 10699
10704 10709 10715 10724 10730 10731 10738 10740 10743 10744 10744 10746 10747 10747 10748 10750 10752 10751 10750 10751 10750 10748 10747 10747 10746 10746 10746 10747 10747 10746 10746 10746 10745 10744 10742 10739 10736 10732 10728 10724 10719 10716 10712 10707 10703 10700 10697 10690 10681
10697 10702 10709 10717 10724 10725 10733 10734 10738 10740 10739 10740 10742 10742 10743 10745 10746 10745 10745 10744 10743 10742 10741 10740 10740 10740 10740 10741 10741 10741 10740 10738 10736 10734 10732 10728 10724 10720 10716 10712 10708 10704 10700 10694 10689 10684 10679 10676 10666
10689 10694 10705 10711 10717 10720 10727 10728 10731 10734 10734 10734 10736 10738 10739 10740 10740 10739 10739 10738 10736 10734 10733 10734 10734 10734 10734 10734 10733 10732 10731 10729 10726 10723 10719 10715 10711 10707 10703 10699 10695 10690 10686 10680 10674 10667 10661 10656 10651
10676 10692 10698 10705 10711 10717 10720 10724 10725 10728 10730 10729 10729 10732 10734 10734 10735 10733 10732 10730 10729 10728 10727 10727 10726 10726 10725 10724 10723 10721 10720 10716 10712 10709 10706 10703 10699 10694 10690 10686 10681 10675 10669 10663 10657 10649 10640 10634 10629
10677 10688 10694 10700 10707 10713 10714 10719 10716 10721 10723 10723 10724 10725 10727 10728 10729 10726 10724 10722 10722 10723 10722 10720 10718 10717 10716 10715 10714 10712 10709 10706 10703 10700 10696 10691 10687 10681 10676 10671 10665 10659 10652 10646 10639 10630 10621 10612 10602
10678 10683 10688 10695 10701 10701 10709 10715 10708 10714 10716 10717 10717 10719 10720 10722 10722 10719 10715 10715 10718 10717 10715 10713 10711 10710 10708 10707 10705 10703 10701 10698 10694 10690 10685 10679 10673 10667 10661 10654 10647 10640 10633 10625 10617 10608 10598 10586 10577
10670 10676 10683 10689 10694 10697 10702 10706 10700 10705 10708 10710 10710 10711 10714 10715 10714 10711 10708 10708 10710 10709 10706 10705 10704 10703 10701 10699 10697 10694 10691 10687 10682 10676 10671 10665 10659 10652 10644 10636 10627 10618 10610 10601 10591 10581 10571 10560 10547
10663 10673 10673 10683 10689 10693 10695 10696 10693 10698 10702 10703 10704 10705 10707 10707 10705 10702 10702 10702 10701 10699 10697 10695 10695 10694 10691 10688 10685 10681 10677 10673 10668 10662 10657 10649 10642 10634 10627 10618 10608 10597 10587 10576 10566 10554 10542 10529 10516
10659 10660 10672 10678 10682 10684 10686 10686 10686 10691 10694 10696 10697 10697 10698 10697 10696 10694 10694 10694 10693 10690 10688 10686 10685 10682 10678 10675 10671 10668 10663 10658 10652 10646 10639 10632 10624 10615 10605 10594 10584 10572 10559 10547 10536 10525 10512 10499 10483
10648 10657 10661 10666 10672 10676 10677 10678 10680 10683 10686 10688 10689 10689 10687 10687 10686 10685 10685 10684 10682 10681 10679 10675 10672 10669 10666 10662 10658 10653 10647 10642 10636 10629 10621 10612 10601 10591 10581 10569 10556 10545 10532 10518 10505 10491 10478 10466 10450
10638 10647 10655 10661 10665 10666 10669 10669 10673 10675 10679 10681 10680 10679 10678 10677 10676 10676 10675 10674 10673 10670 10666 10663 10660 10656 10652 10648 10643 10637 10631 10624 10617 10608 10599 10589 10578 10566 10555 10544 10531 10517 10502 10486 10473 10460 10443 10427 10413